GW0191 Weather Reports


time (UTC)temp
C
wind
direction
speed
KPH
gust
KPH
rain 1hr
cm
rain 24hr
cm
rain mn
cm
humidity
%
barometer
mb
20260505012140 24 233 1.6 4.8 0.00 0.00 0.00 74 1013.7
20260505011636 24 141 3.2 3.2 0.00 0.00 0.00 74 1013.7
20260505011134 24 119 3.2 4.8 0.00 0.00 0.00 73 1014.0
20260505010634 24 219 1.6 3.2 0.00 0.00 0.00 73 1013.8
20260505010131 24 321 1.6 3.2 0.00 0.00 0.00 73 1013.7
20260505005627 24 241 1.6 3.2 0.00 0.00 0.00 73 1013.6
20260505005124 24 6 0.0 1.6 0.00 0.00 0.00 73 1013.8
20260505004621 24 326 0.0 4.8 0.00 0.00 0.00 72 1013.5
20260505004118 25 176 6.4 11.3 0.00 0.00 0.00 72 1013.7
20260505003615 25 255 1.6 3.2 0.00 0.00 0.00 72 1013.5
20260505003113 25 142 1.6 3.2 0.00 0.00 0.00 71 1013.5
20260505002608 25 124 3.2 4.8 0.00 0.00 0.00 71 1013.3
20260505002107 25 105 3.2 4.8 0.00 0.00 0.00 70 1013.5
20260505001604 25 178 1.6 3.2 0.00 0.00 0.00 70 1013.7
20260505001101 25 148 3.2 3.2 0.00 0.00 0.00 69 1013.5
20260505000558 25 181 3.2 8.0 0.00 0.00 0.00 69 1013.7
20260505000056 25 58 1.6 3.2 0.00 0.00 0.00 69 1013.6
20260504235552 25 268 0.0 8.0 0.00 0.00 0.00 69 1013.5
20260504235049 25 207 3.2 9.7 0.00 0.00 0.00 69 1013.7
20260504234546 25 286 4.8 8.0 0.00 0.00 0.00 68 1013.7
20260504234043 25 224 3.2 4.8 0.00 0.00 0.00 67 1013.8
20260504233538 26 179 4.8 12.9 0.00 0.00 0.00 67 1014.1
20260504233035 26 164 4.8 8.0 0.00 0.00 0.00 67 1013.9
20260504232532 26 315 0.0 3.2 0.00 0.00 0.00 67 1013.9
20260504232030 26 176 1.6 4.8 0.00 0.00 0.00 66 1013.9
20260504231526 26 329 1.6 3.2 0.00 0.00 0.00 66 1014.2
20260504231022 26 201 6.4 8.0 0.00 0.00 0.00 65 1013.9
20260504230519 26 149 3.2 11.3 0.00 0.00 0.00 65 1014.1
20260504230018 26 148 3.2 8.0 0.00 0.00 0.00 64 1014.1
20260504225515 26 253 1.6 8.0 0.00 0.00 0.00 64 1014.1
20260504225012 26 174 4.8 8.0 0.00 0.00 0.00 64 1014.0
20260504224508 26 190 1.6 8.0 0.00 0.00 0.00 63 1014.1
20260504224005 26 57 4.8 9.7 0.00 0.00 0.00 63 1014.3
20260504223502 26 230 1.6 8.0 0.00 0.00 0.00 63 1014.3
20260504222957 26 3 1.6 4.8 0.00 0.00 0.00 63 1014.4
20260504222455 26 273 1.6 8.0 0.00 0.00 0.00 63 1014.3
20260504221952 26 150 3.2 12.9 0.00 0.00 0.00 62 1014.5
20260504221449 27 295 1.6 12.9 0.00 0.00 0.00 61 1014.6
20260504220946 27 190 3.2 8.0 0.00 0.00 0.00 61 1014.4
20260504220443 27 248 4.8 8.0 0.00 0.00 0.00 61 1014.7
20260504215940 27 224 4.8 9.7 0.00 0.00 0.00 61 1014.6
20260504215436 27 330 1.6 8.0 0.00 0.00 0.00 60 1014.7
20260504214933 27 145 3.2 3.2 0.00 0.00 0.00 58 1014.7
20260504214429 27 13 1.6 4.8 0.00 0.00 0.00 59 1014.8
20260504213926 28 343 3.2 4.8 0.00 0.00 0.00 58 1014.8
20260504213422 27 284 1.6 4.8 0.00 0.00 0.00 58 1014.7
20260504212920 27 85 1.6 3.2 0.00 0.00 0.00 58 1014.9
20260504212415 27 148 1.6 4.8 0.00 0.00 0.00 58 1014.9
20260504211914 28 154 3.2 3.2 0.00 0.00 0.00 58 1014.9
20260504211409 28 28 0.0 4.8 0.00 0.00 0.00 57 1015.1
20260504210907 28 275 1.6 4.8 0.00 0.00 0.00 56 1015.2
20260504210404 29 221 1.6 8.0 0.00 0.00 0.00 55 1015.2
20260504205901 29 194 6.4 9.7 0.00 0.00 0.00 54 1015.3
20260504205359 28 299 1.6 3.2 0.00 0.00 0.00 55 1015.1
20260504204857 28 304 0.0 1.6 0.00 0.00 0.00 56 1015.3
20260504204355 28 260 0.0 3.2 0.00 0.00 0.00 55 1015.6
20260504203854 28 314 1.6 4.8 0.00 0.00 0.00 54 1015.7
20260504203350 28 253 0.0 9.7 0.00 0.00 0.00 55 1015.6
20260504202846 28 193 1.6 9.7 0.00 0.00 0.00 56 1015.5
20260504202344 28 289 1.6 3.2 0.00 0.00 0.00 55 1015.7
20260504201840 28 250 1.6 4.8 0.00 0.00 0.00 57 1015.8
20260504201337 28 76 3.2 4.8 0.00 0.00 0.00 57 1016.0
20260504200835 28 319 0.0 3.2 0.00 0.00 0.00 57 1016.3
20260504200331 28 286 1.6 3.2 0.00 0.00 0.00 55 1016.3
20260504195828 30 315 3.2 8.0 0.00 0.00 0.00 53 1016.2
20260504195323 28 255 3.2 3.2 0.00 0.00 0.00 53 1016.5
20260504194820 27 316 1.6 4.8 0.00 0.00 0.00 56 1016.5
20260504194316 28 148 4.8 4.8 0.00 0.00 0.00 54 1016.5
20260504193812 28 170 8.0 11.3 0.00 0.00 0.00 54 1016.4
20260504193310 27 215 3.2 11.3 0.00 0.00 0.00 55 1016.7
20260504192808 27 263 4.8 12.9 0.00 0.00 0.00 57 1016.6
20260504192306 27 270 1.6 9.7 0.00 0.00 0.00 57 1017.1
20260504191805 28 242 0.0 1.6 0.00 0.00 0.00 53 1016.9
20260504191302 27 303 1.6 3.2 0.00 0.00 0.00 56 1017.2
20260504190757 27 203 1.6 3.2 0.00 0.00 0.00 56 1017.0
20260504190253 27 175 1.6 9.7 0.00 0.00 0.00 56 1017.1
20260504185750 26 249 4.8 9.7 0.00 0.00 0.00 56 1017.2
20260504185247 27 82 6.4 8.0 0.00 0.00 0.00 58 1017.2
20260504184743 26 313 0.0 16.1 0.00 0.00 0.00 58 1017.1
20260504184239 27 234 3.2 3.2 0.00 0.00 0.00 57 1017.4
20260504183735 27 273 6.4 9.7 0.00 0.00 0.00 55 1017.4
20260504183232 28 263 3.2 8.0 0.00 0.00 0.00 54 1017.4
20260504182730 28 279 1.6 9.7 0.00 0.00 0.00 54 1017.2
20260504182227 27 202 3.2 3.2 0.00 0.00 0.00 56 1017.2
20260504181724 27 277 1.6 4.8 0.00 0.00 0.00 57 1017.3
20260504181222 27 168 6.4 9.7 0.00 0.00 0.00 55 1017.6
20260504180721 27 332 4.8 8.0 0.00 0.00 0.00 55 1017.7
20260504180219 26 152 0.0 4.8 0.00 0.00 0.00 58 1017.5
20260504175716 26 286 3.2 8.0 0.00 0.00 0.00 58 1017.9
20260504175213 26 294 1.6 4.8 0.00 0.00 0.00 58 1017.9
20260504174711 26 150 3.2 11.3 0.00 0.00 0.00 59 1017.9
20260504174209 26 266 3.2 8.0 0.00 0.00 0.00 57 1018.0
20260504173705 26 300 1.6 8.0 0.00 0.00 0.00 59 1017.9
20260504173202 26 43 3.2 11.3 0.00 0.00 0.00 59 1018.1
20260504172658 26 196 1.6 3.2 0.00 0.00 0.00 59 1018.2
20260504172155 27 350 3.2 4.8 0.00 0.00 0.00 58 1018.2
20260504171651 26 282 1.6 3.2 0.00 0.00 0.00 57 1018.4
20260504171148 26 213 11.3 16.1 0.00 0.00 0.00 57 1018.4
20260504170645 26 299 0.0 8.0 0.00 0.00 0.00 56 1018.4
20260504170143 26 319 0.0 4.8 0.00 0.00 0.00 60 1018.4
20260504151028 22 251 3.2 14.5 0.00 0.00 0.00 67 1019.4
20260504150525 22 318 6.4 12.9 0.00 0.00 0.00 67 1019.5
20260504140951 21 211 1.6 3.2 0.00 0.00 0.00 69 1019.7
20260504140447 20 220 1.6 3.2 0.00 0.00 0.00 69 1019.2
20260504130412 16 200 0.0 0.0 0.00 0.00 0.00 84 1019.5
20260504110259 14 340 0.0 0.0 0.00 0.00 0.00 87 1018.8
20260504100217 14 342 0.0 0.0 0.00 0.00 0.00 84 1019.1
20260504090140 15 335 0.0 0.0 0.00 0.00 0.00 83 1019.6
20260504081610 15 335 0.0 0.0 0.00 0.00 0.00 81 1019.8
20260504081106 15 334 0.0 0.0 0.00 0.00 0.00 81 1019.9
20260504080603 16 324 0.0 0.0 0.00 0.00 0.00 80 1019.9
20260504050415 18 302 0.0 0.0 0.00 0.00 0.00 70 1021.7
20260504045912 18 228 0.0 1.6 0.00 0.00 0.00 68 1021.6
20260504045408 18 298 0.0 0.0 0.00 0.00 0.00 69 1021.8
20260504044904 18 292 0.0 1.6 0.00 0.00 0.00 68 1021.9
20260504044402 18 320 0.0 0.0 0.00 0.00 0.00 67 1021.8
20260504043859 18 300 0.0 0.0 0.00 0.00 0.00 67 1021.9
20260504043356 18 325 0.0 0.0 0.00 0.00 0.00 67 1021.6
20260504042854 18 303 0.0 0.0 0.00 0.00 0.00 67 1021.6
20260504042350 18 319 0.0 0.0 0.00 0.00 0.00 66 1021.7
20260504041846 18 273 0.0 0.0 0.00 0.00 0.00 64 1022.0
20260504041342 19 238 0.0 1.6 0.00 0.00 0.00 64 1021.9
20260504040838 19 231 0.0 1.6 0.00 0.00 0.00 64 1021.8
20260504040336 18 291 0.0 1.6 0.00 0.00 0.00 64 1022.0
20260504035832 18 321 0.0 3.2 0.00 0.00 0.00 64 1021.8
20260504035330 19 292 0.0 0.0 0.00 0.00 0.00 65 1022.1
20260504034827 19 309 0.0 0.0 0.00 0.00 0.00 63 1021.8
20260504034324 19 288 1.6 1.6 0.00 0.00 0.00 62 1022.0
20260504033821 20 302 0.0 0.0 0.00 0.00 0.00 61 1022.1
20260504033319 20 284 3.2 3.2 0.00 0.00 0.00 62 1022.1
20260504032815 20 253 0.0 0.0 0.00 0.00 0.00 61 1021.8
20260504032313 20 126 1.6 1.6 0.00 0.00 0.00 59 1021.7
20260504031809 20 333 0.0 0.0 0.00 0.00 0.00 60 1021.6
20260504031307 20 160 1.6 1.6 0.00 0.00 0.00 59 1021.5
20260504030803 20 189 0.0 1.6 0.00 0.00 0.00 59 1021.7
20260504030300 20 259 0.0 1.6 0.00 0.00 0.00 58 1021.5
20260504025756 20 275 0.0 0.0 0.00 0.00 0.00 57 1021.7
20260504025253 20 132 0.0 1.6 0.00 0.00 0.00 57 1021.8
20260504024750 21 295 0.0 1.6 0.00 0.00 0.00 56 1021.7
20260504024247 21 290 3.2 3.2 0.00 0.00 0.00 56 1021.6
20260504023744 21 165 0.0 1.6 0.00 0.00 0.00 56 1021.5
20260504023240 21 216 0.0 1.6 0.00 0.00 0.00 55 1021.7
20260504022736 21 328 1.6 8.0 0.00 0.00 0.00 55 1021.6
20260504022232 21 165 4.8 8.0 0.00 0.00 0.00 54 1021.4
20260504021729 21 209 1.6 1.6 0.00 0.00 0.00 54 1021.4
20260504021227 21 151 0.0 3.2 0.00 0.00 0.00 53 1021.4
20260504020723 21 167 1.6 4.8 0.00 0.00 0.00 53 1021.4
20260504020220 21 238 0.0 3.2 0.00 0.00 0.00 54 1021.4
20260504015716 21 264 3.2 3.2 0.00 0.00 0.00 53 1021.5
20260504015213 22 162 0.0 1.6 0.00 0.00 0.00 53 1021.3
20260504014708 22 269 0.0 3.2 0.00 0.00 0.00 52 1021.5
20260504014205 22 155 0.0 3.2 0.00 0.00 0.00 52 1021.2
20260504013703 22 142 1.6 3.2 0.00 0.00 0.00 51 1021.1
20260504013200 22 208 0.0 3.2 0.00 0.00 0.00 51 1021.1
20260504012657 22 167 0.0 1.6 0.00 0.00 0.00 51 1021.0